www.srh.weather.gov   
NOAA logo - Click to go to the NOAA homepage   NWS logo
Hourly Weather Roundup
Enter Your "City, ST" or zip code   
Current Version              Previous Version:    01  02  03  04  05  06  07  08  09  10  11  12  13  14  15  16  17  18  19  20  21  22  23  24  25  26  27  28  29  30  
   31  32  33  34  35  36  37  38  39  40  41  42  43  44  45  46  47  48  49  50  51  52  53  54  55  56  57  58  59  60  
[Printable]
071
NZUS43 KILX 261310
HWRILX

AREA WEATHER ROUNDUP
NATIONAL WEATHER SERVICE, LINCOLN IL
700 AM CST WED NOV 26 2014


CITY           SKY/WX    TMP DP  RH WIND       PRES   REMARKS
BLOOMINGTON    PTCLDY    21  20  96 SE10      30.11F WCI  10
CHAMPAIGN      PTCLDY    21  18  88 E7        30.13F WCI  12
DECATUR        PTCLDY    23  21  92 SE7       30.12S WCI  15
FLORA          CLEAR     23  23  98 CALM      30.15S FOG
GALESBURG      CLOUDY    23  22  95 E6        30.06S WCI  16
JACKSONVILLE   MOCLDY    30  27  86 SE13      30.06F WCI  20
LACON          CLEAR     19  17  89 SE5       30.11S WCI  13
LAWRENCEVILLE  CLEAR     24  22  91 NE5       30.16S FOG     WCI  18
LITCHFIELD     PTCLDY    25  22  89 SE8       30.09S WCI  16
$$


CITY           SKY/WX    TMP DP  RH WIND       PRES   REMARKS
LINCOLN        MOCLDY    25  23  91 SE6       30.12S WCI  18
MACOMB         MOCLDY    25  25  97 SE10      30.07F WCI  15
MATTOON        MOCLDY    24  21  88 SE7       30.13R WCI  16
MT CARMEL AP   FAIR      27  23  86 CALM      30.16R FOG
OLNEY-NOBLE AP PTCLDY    23  21  93 CALM      30.15S FOG
PARIS          MOCLDY    24  23  97 CALM      30.15S FOG
PEORIA         MOCLDY    25  20  81 SE5       30.10S WCI  19
PONTIAC        MOCLDY    23  21  91 SE12      30.15R WCI  12
RANTOUL        CLOUDY    23  21  91 E3        30.14R FOG
ROBINSON       PTCLDY    21  20  97 CALM      30.17S FOG
SPRINGFIELD    CLOUDY    26  24  92 E9        30.10S WCI  17
TAYLORVILLE    MOCLDY    27  23  86 SE10      30.10S WCI  17
$$

...REGIONAL REPORTS...


CITY           SKY/WX    TMP DP  RH WIND       PRES   REMARKS
CHICAGO O`HARE CLOUDY    19  16  88 CALM      30.14F FOG
KANKAKEE       CLOUDY   N/A N/A N/A E9        30.16S
MOLINE         CLOUDY    19  16  88 E7        30.07S WCI  10
MOUNT VERNON   PTCLDY    25  19  80 E3        30.13S
PITTSFIELD     MOCLDY    30  27  90 SE7       30.05F WCI  23
QUINCY         CLOUDY    29  24  82 SE9       30.01F WCI  20
ROCKFORD       MOCLDY    17  12  80 E3        30.16R HAZE
$$


CITY           SKY/WX    TMP DP  RH WIND       PRES   REMARKS
BURLINGTON     MOCLDY    27  24  89 SE13      30.01F WCI  16
CEDAR RAPIDS   MOCLDY    22  20  92 E14       30.00F WCI   9
DES MOINES     LGT SNOW  30  27  88 E10       29.88R FOG     WCI  21
KIRKSVILLE     LGT SNOW  29  28  96 S9        29.94S VSB 3/4 WCI  20
OTTUMWA        CLOUDY    29  21  72 SE10      29.92F WCI  20
ST LOUIS       MOCLDY    30  25  81 SE9       30.08S WCI  22
$$


CITY           SKY/WX    TMP DP  RH WIND       PRES   REMARKS
TERRE HAUTE    CLOUDY    25  21  85 E7        30.16R WCI  17
EVANSVILLE     CLEAR     24  20  84 CALM      30.16S FOG
INDIANAPOLIS   CLOUDY    27  20  75 E3        30.13R
LAFAYETTE      CLOUDY    24  19  81 E8        30.16R WCI  15
MADISON        CLOUDY    14  11  87 S7        30.12R FOG     WCI   4
MILWAUKEE      CLOUDY    16  13  88 VRB3      30.16S FOG
$$





National Weather Service
Disclaimer
Last Modified: August 31, 2005
Privacy Policy